Monterey, CA

5:14 AM PDT on August 19, 2017 (GMT -0700)
Monterey Peninsula

Weather History for KMRY - December, 2013

Change the Weather History Date:

Thursday, December 5, 2013

  Actual Average Record
Temperature  
Mean Temperature 41 °F 52 °F  
Max Temperature 51 °F 61 °F 75 °F (2000)
Min Temperature 30 °F 43 °F 30 °F (2013)
Degree Days  
Heating Degree Days 24    
Month to date heating degree days 84  
Since 1 July heating degree days 851  
Cooling Degree Days 0    
Month to date cooling degree days 0  
Year to date cooling degree days 49  
Moisture  
Dew Point 25 °F    
Average Humidity 51    
Maximum Humidity 72    
Minimum Humidity 29    
Precipitation  
Precipitation 0.00 in - 0.44 in (2012)
Month to date precipitation 0.01  
Year to date precipitation 4.17  
Since 1 July precipitation 1.02  
Sea Level Pressure  
Sea Level Pressure 30.17 in    
Wind  
Wind Speed 4 mph (ENE)    
Max Wind Speed 9 mph    
Max Gust Speed 13 mph    
Visibility 10 miles    
Events      
T = Trace of Precipitation, MM = Missing Value Source: NWS Daily Summary

Daily Weather History Graph

Daily Weather History Graph

Search for Another Location

Airport or City:

Trip Planner

Search our weather history database for the weather conditions in past years. The results will help you decide how hot, cold, wet, or windy it might be!

Date:

Astronomy

Dec. 05, 2013 Rise Set
Actual Time 7:04 AM PST 4:51 PM PST
Civil Twilight 6:36 AM PST 5:19 PM PST
Nautical Twilight 6:04 AM PST 5:52 PM PST
Astronomical Twilight 5:32 AM PST 6:23 PM PST
Moon 9:31 AM PST (12/5) 8:15 PM PST (12/5)
Length of Visible Light 10h 43m
Length of Day
9h 46m
Waxing Crescent, 11% of the Moon is Illuminated
Dec 5
Waxing Crescent
Dec 9
First Quarter
Dec 17
Full
Dec 25
Last Quarter
Jan 1
New

Hourly Weather History & Observations

Time (PST) Temp. Windchill Dew Point Humidity Pressure Visibility Wind Dir Wind Speed Gust Speed Precip Events Conditions
12:54 AM 36.0 °F 29.6 °F 27.0 °F 70% 30.11 in 10.0 mi East 8.1 mph - N/A   Clear
1:54 AM 36.0 °F 30.3 °F 27.0 °F 70% 30.12 in 10.0 mi East 6.9 mph - N/A   Clear
2:54 AM 35.1 °F 31.0 °F 26.1 °F 70% 30.12 in 10.0 mi ENE 4.6 mph - N/A   Clear
3:54 AM 33.1 °F 28.7 °F 25.0 °F 72% 30.12 in 10.0 mi East 4.6 mph - N/A   Clear
4:54 AM 33.1 °F 28.7 °F 24.1 °F 70% 30.13 in 10.0 mi East 4.6 mph - N/A   Clear
5:54 AM 30.9 °F 25.2 °F 23.0 °F 72% 30.14 in 10.0 mi East 5.8 mph - N/A   Clear
6:54 AM 33.1 °F 27.7 °F 21.0 °F 61% 30.16 in 10.0 mi East 5.8 mph - N/A   Clear
7:54 AM 34.0 °F 28.8 °F 21.0 °F 59% 30.18 in 10.0 mi East 5.8 mph - N/A   Clear
8:54 AM 41.0 °F - 23.0 °F 49% 30.19 in 10.0 mi Calm Calm - N/A   Clear
9:54 AM 45.0 °F - 21.0 °F 39% 30.20 in 10.0 mi Calm Calm - N/A   Clear
10:54 AM 46.9 °F - 21.0 °F 36% 30.19 in 10.0 mi Calm Calm - N/A   Clear
11:54 AM 50.0 °F - 19.9 °F 31% 30.18 in 10.0 mi Calm Calm - N/A   Clear
12:54 PM 50.0 °F - 23.0 °F 35% 30.16 in 10.0 mi WNW 8.1 mph - N/A   Clear
1:54 PM 51.1 °F - 21.9 °F 32% 30.15 in 10.0 mi NW 5.8 mph - N/A   Clear
2:54 PM 50.0 °F - 23.0 °F 35% 30.15 in 10.0 mi West 8.1 mph - N/A   Clear
3:54 PM 48.9 °F - 28.0 °F 44% 30.16 in 10.0 mi WNW 5.8 mph - N/A   Clear
4:54 PM 46.9 °F - 30.9 °F 54% 30.17 in 10.0 mi SW 3.5 mph - N/A   Clear
5:54 PM 42.1 °F - 28.9 °F 60% 30.17 in 10.0 mi Calm Calm - N/A   Clear
6:54 PM 39.9 °F 35.8 °F 28.9 °F 65% 30.18 in 10.0 mi East 5.8 mph - N/A   Clear
7:54 PM 41.0 °F 36.4 °F 28.0 °F 60% 30.19 in 10.0 mi East 6.9 mph - N/A   Clear
8:54 PM 42.1 °F 37.7 °F 25.0 °F 51% 30.20 in 10.0 mi East 6.9 mph - N/A   Clear
9:54 PM 39.9 °F 35.8 °F 24.1 °F 53% 30.21 in 10.0 mi East 5.8 mph - N/A   Clear
10:54 PM 39.0 °F 36.8 °F 24.1 °F 55% 30.21 in 10.0 mi ENE 3.5 mph - N/A   Clear
11:54 PM 37.9 °F - 25.0 °F 60% 30.22 in 10.0 mi Calm Calm - N/A   Clear